Adana/Sakirpasa, Turkey

3:23 AM +03 on December 05, 2016 (GMT +0300)
Adana

Weather History for LTAF - November, 2012

Change the Weather History Date:

Tuesday, November 20, 2012

  Actual Average Record
Temperature  
Mean Temperature 60 °F -  
Max Temperature 71 °F 68 °F 82 °F (2010)
Min Temperature 48 °F 48 °F 40 °F (2016)
Degree Days  
Heating Degree Days 6    
Growing Degree Days 10 (Base 50)    
Moisture  
Dew Point 49 °F    
Average Humidity 73    
Maximum Humidity 94    
Minimum Humidity 35    
Precipitation  
Precipitation 0.00 in - - ()
Sea Level Pressure  
Sea Level Pressure 30.04 in    
Wind  
Wind Speed 2 mph ()    
Max Wind Speed 6 mph    
Max Gust Speed -    
Visibility 5.7 miles    
Events      
Averages and records for this station are not official NWS values.
T = Trace of Precipitation, MM = Missing Value Source: Averaged Metar Reports

Daily Weather History Graph

Daily Weather History Graph

Search for Another Location

Airport or City:

Trip Planner

Search our weather history database for the weather conditions in past years. The results will help you decide how hot, cold, wet, or windy it might be!

Date:

Astronomy

Nov. 20, 2012 Rise Set
Actual Time 6:22 AM EET 4:25 PM EET
Civil Twilight 5:54 AM EET 4:53 PM EET
Nautical Twilight 5:23 AM EET 5:25 PM EET
Astronomical Twilight 4:52 AM EET 5:56 PM EET
Moon 11:50 AM EET (11/20) 11:30 PM EET (11/20)
Length of Visible Light 10h 59m
Length of Day
10h 03m
Waxing Crescent, 48% of the Moon is Illuminated
Nov 20
Waxing Crescent
Nov 20
First Quarter
Nov 28
Full
Dec 6
Last Quarter
Dec 13
New

Hourly Weather History & Observations

Time (EET) Temp. Dew Point Humidity Pressure Visibility Wind Dir Wind Speed Gust Speed Precip Events Conditions
12:20 AM 51.8 °F 50.0 °F 94% 30.06 in - NNE 4.6 mph - N/A   Clear
12:50 AM 53.6 °F 50.0 °F 88% 30.04 in - NNW 2.3 mph - N/A   Clear
1:20 AM 51.8 °F 48.2 °F 88% 30.06 in - North 2.3 mph - N/A   Clear
1:50 AM 51.8 °F 48.2 °F 88% 30.06 in - Calm Calm - N/A   Clear
2:20 AM 51.8 °F 48.2 °F 88% 30.04 in - North 3.5 mph - N/A   Clear
2:50 AM 51.8 °F 48.2 °F 88% 30.04 in - Variable 1.2 mph - N/A   Clear
3:20 AM 50.0 °F 46.4 °F 87% 30.04 in - Calm Calm - N/A   Clear
3:50 AM 51.8 °F 48.2 °F 88% 30.04 in - Calm Calm - N/A   Clear
4:20 AM 50.0 °F 46.4 °F 87% 30.04 in - Calm Calm - N/A   Clear
4:50 AM 48.2 °F 46.4 °F 93% 30.04 in - Calm Calm - N/A   Clear
5:20 AM 48.2 °F 46.4 °F 93% 30.06 in - Calm Calm - N/A   Clear
5:50 AM 50.0 °F 46.4 °F 87% 30.06 in - NW 2.3 mph - N/A   Clear
6:20 AM 50.0 °F 46.4 °F 87% 30.06 in - North 3.5 mph - N/A   Clear
6:50 AM 50.0 °F 48.2 °F 94% 30.06 in - Variable 2.3 mph - N/A   Clear
7:20 AM 53.6 °F 50.0 °F 88% 30.06 in - Variable 2.3 mph - N/A   Clear
7:50 AM 57.2 °F 51.8 °F 82% 30.06 in - Calm Calm - N/A   Clear
8:20 AM 59.0 °F 51.8 °F 77% 30.06 in - NE 4.6 mph - N/A   Clear
8:50 AM 60.8 °F 50.0 °F 68% 30.09 in - NE 5.8 mph - N/A   Clear
9:20 AM 62.6 °F 50.0 °F 63% 30.09 in - NE 4.6 mph - N/A   Clear
9:50 AM 66.2 °F 46.4 °F 49% 30.06 in - NNE 4.6 mph - N/A   Clear
10:20 AM 68.0 °F 44.6 °F 43% 30.06 in - Variable 2.3 mph - N/A   Clear
10:50 AM 69.8 °F 44.6 °F 40% 30.06 in - NE 4.6 mph - N/A   Clear
11:20 AM 68.0 °F 44.6 °F 43% 30.04 in - ENE 3.5 mph - N/A   Clear
11:50 AM 71.6 °F 42.8 °F 35% 30.04 in - Variable 2.3 mph - N/A   Clear
12:20 PM 69.8 °F 46.4 °F 43% 30.04 in - Variable 1.2 mph - N/A   Clear
12:50 PM 69.8 °F 46.4 °F 43% 30.04 in 6.2 mi West 3.5 mph - N/A   Scattered Clouds
1:20 PM 69.8 °F 48.2 °F 46% 30.01 in 6.2 mi SSW 4.6 mph - N/A   Scattered Clouds
1:50 PM 69.8 °F 48.2 °F 46% 30.01 in 6.2 mi SW 5.8 mph - N/A   Mostly Cloudy
2:20 PM 69.8 °F 50.0 °F 49% 30.01 in 6.2 mi SW 4.6 mph - N/A   Mostly Cloudy
2:50 PM 68.0 °F 50.0 °F 52% 30.01 in 6.2 mi WSW 4.6 mph - N/A   Mostly Cloudy
3:20 PM 68.0 °F 48.2 °F 49% 30.01 in 6.2 mi WNW 3.5 mph - N/A   Mostly Cloudy
3:50 PM 68.0 °F 48.2 °F 49% 30.01 in 6.2 mi West 3.5 mph - N/A   Mostly Cloudy
4:20 PM 64.4 °F 51.8 °F 64% 30.01 in 6.2 mi SSW 3.5 mph - N/A   Mostly Cloudy
4:50 PM 62.6 °F 53.6 °F 72% 30.04 in 6.2 mi SW 3.5 mph - N/A   Mostly Cloudy
5:20 PM 62.6 °F 53.6 °F 72% 30.04 in 6.2 mi WSW 3.5 mph - N/A   Mostly Cloudy
5:50 PM 60.8 °F 53.6 °F 77% 30.04 in 6.2 mi WSW 2.3 mph - N/A   Mostly Cloudy
6:20 PM 60.8 °F 53.6 °F 77% 30.04 in 6.2 mi Variable 2.3 mph - N/A   Mostly Cloudy
6:50 PM 59.0 °F 53.6 °F 82% 30.04 in 6.2 mi Variable 1.2 mph - N/A   Mostly Cloudy
7:20 PM 57.2 °F 53.6 °F 88% 30.04 in 6.2 mi Variable 1.2 mph - N/A   Mostly Cloudy
7:50 PM 59.0 °F 53.6 °F 82% 30.04 in 6.2 mi NE 3.5 mph - N/A   Mostly Cloudy
8:20 PM 59.0 °F 53.6 °F 82% 30.04 in 4.3 mi NNE 4.6 mph - N/A   Mostly Cloudy
8:50 PM 57.2 °F 51.8 °F 82% 30.04 in 3.7 mi NE 4.6 mph - N/A   Mostly Cloudy
9:20 PM 57.2 °F 51.8 °F 82% 30.06 in 3.7 mi Calm Calm - N/A   Scattered Clouds
9:50 PM 57.2 °F 51.8 °F 82% 30.06 in 3.7 mi NNW 3.5 mph - N/A   Scattered Clouds
10:20 PM 57.2 °F 51.8 °F 82% 30.06 in 3.7 mi North 1.2 mph - N/A   Scattered Clouds
10:50 PM 55.4 °F 51.8 °F 88% 30.06 in 6.2 mi NW 2.3 mph - N/A   Scattered Clouds
11:20 PM 55.4 °F 51.8 °F 88% 30.04 in 6.2 mi NNW 4.6 mph - N/A   Scattered Clouds
11:50 PM 55.4 °F 50.0 °F 82% 30.04 in 6.2 mi North 3.5 mph - N/A   Partly Cloudy